,,,PA_Meas_PMT16A,,PR_Meas_QMR101_102,,RH_Meas_QMH101,,SR_Meas_QMS101,,TA_Meas_QMH101,,GenWind,,GenWind,
date,time,status,PA,status,PR,status,RH,status,SR,status,TA,status,DirAvg,status,SpdAvg,
2009-08-06, 00:00:04,VALID,1009.31,VALID,0,VALID,95.9472,VALID,0,VALID,23.5381,VALID,145,VALID,0,
2009-08-06, 00:01:04,VALID,1009.33,VALID,0,VALID,95.9701,VALID,0.105969,VALID,23.5363,VALID,144,VALID,0,
2009-08-06, 00:02:04,VALID,1009.31,VALID,0,VALID,95.9777,VALID,0.105969,VALID,23.5363,VALID,145,VALID,0,
2009-08-06, 00:03:05,VALID,1009.33,VALID,0,VALID,96.0311,VALID,0.105969,VALID,23.5558,VALID,145,VALID,0,
2009-08-06, 00:04:05,VALID,1009.34,VALID,0,VALID,96.2294,VALID,0,VALID,23.5948,VALID,144,VALID,0,
2009-08-06, 00:05:05,VALID,1009.36,VALID,0,VALID,96.2675,VALID,0,VALID,23.6143,VALID,145,VALID,0,
2009-08-06, 00:06:05,VALID,1009.35,VALID,0,VALID,96.2904,VALID,0.105969,VALID,23.6143,VALID,145,VALID,0,
2009-08-06, 00:07:05,VALID,1009.34,VALID,0,VALID,96.2904,VALID,0.105969,VALID,23.6338,VALID,145,VALID,0,
2009-08-06, 00:08:05,VALID,1009.35,VALID,0,VALID,96.237,VALID,0,VALID,23.6356,VALID,145,VALID,0,
2009-08-06, 00:09:05,VALID,1009.33,VALID,0,VALID,96.2294,VALID,0.105969,VALID,23.5948,VALID,145,VALID,0,
2009-08-06, 00:10:05,VALID,1009.4,VALID,0,VALID,96.2294,VALID,0.105969,VALID,23.6356,VALID,145,VALID,0,
2009-08-06, 00:11:05,VALID,1009.38,VALID,0,VALID,96.3285,VALID,0.105969,VALID,23.6338,VALID,145,VALID,0,
2009-08-06, 00:12:05,VALID,1009.4,VALID,0,VALID,96.3666,VALID,0,VALID,23.6727,VALID,145,VALID,0,
2009-08-06, 00:13:05,VALID,1009.4,VALID,0,VALID,96.3666,VALID,0.105969,VALID,23.694,VALID,145,VALID,0,
2009-08-06, 00:14:05,VALID,1009.41,VALID,0,VALID,96.3743,VALID,0.105969,VALID,23.7135,VALID,145,VALID,0,
2009-08-06, 00:15:05,VALID,1009.43,VALID,0,VALID,96.3743,VALID,0.105969,VALID,23.6922,VALID,175,VALID,0.128906,
2009-08-06, 00:16:05,VALID,1009.37,VALID,0,VALID,96.4582,VALID,0.105969,VALID,23.7312,VALID,210,VALID,0.111328,
2009-08-06, 00:17:05,VALID,1009.34,VALID,0,VALID,96.4658,VALID,0.105969,VALID,23.772,VALID,210,VALID,0,
2009-08-06, 00:18:05,VALID,1009.31,VALID,0,VALID,96.542,VALID,0.105969,VALID,23.8091,VALID,210,VALID,0,
2009-08-06, 00:19:05,VALID,1009.31,VALID,0,VALID,96.6107,VALID,0,VALID,23.8694,VALID,210,VALID,0.00117188,
2009-08-06, 00:20:05,VALID,1009.27,VALID,0,VALID,96.7327,VALID,0.105969,VALID,23.9065,VALID,210,VALID,0.172656,
2009-08-06, 00:21:05,VALID,1009.25,VALID,0,VALID,96.7479,VALID,0,VALID,23.9686,VALID,210,VALID,0.00507812,
2009-08-06, 00:22:05,VALID,1009.25,VALID,0,VALID,96.7784,VALID,0,VALID,23.9881,VALID,210,VALID,0.207422,
2009-08-06, 00:23:05,VALID,1009.23,VALID,0,VALID,96.7861,VALID,0,VALID,24.0076,VALID,234,VALID,0.0542969,
2009-08-06, 00:24:05,VALID,1009.24,VALID,0,VALID,96.7479,VALID,0,VALID,24.0076,VALID,234,VALID,0.0128906,
2009-08-06, 00:25:05,VALID,1009.25,VALID,0,VALID,96.6946,VALID,0,VALID,23.9863,VALID,234,VALID,0.0835937,
2009-08-06, 00:26:05,VALID,1009.29,VALID,0,VALID,96.6488,VALID,0,VALID,24.0058,VALID,234,VALID,0,
2009-08-06, 00:27:05,VALID,1009.3,VALID,0,VALID,96.6183,VALID,0,VALID,24.0448,VALID,234,VALID,0,
2009-08-06, 00:28:05,VALID,1009.28,VALID,0,VALID,96.6183,VALID,0,VALID,24.0856,VALID,234,VALID,0.135937,
2009-08-06, 00:29:05,VALID,1009.29,VALID,0,VALID,96.5573,VALID,0,VALID,24.0643,VALID,198,VALID,0.491406,
2009-08-06, 00:30:05,VALID,1009.25,VALID,0,VALID,96.4887,VALID,0,VALID,24.0643,VALID,163,VALID,0.382031,
2009-08-06, 00:31:05,VALID,1009.23,VALID,0,VALID,96.4734,VALID,0,VALID,24.1245,VALID,179,VALID,0.769922,
2009-08-06, 00:32:05,VALID,1009.23,VALID,0,VALID,96.5878,VALID,0,VALID,24.1812,VALID,196,VALID,0.433594,
2009-08-06, 00:33:05,VALID,1009.21,VALID,0,VALID,96.5954,VALID,0,VALID,24.2415,VALID,184,VALID,0.286719,
2009-08-06, 00:34:05,VALID,1009.22,VALID,0,VALID,96.6412,VALID,0,VALID,24.2786,VALID,178,VALID,0.441406,
2009-08-06, 00:35:05,VALID,1009.22,VALID,0,VALID,96.6717,VALID,0,VALID,24.3371,VALID,177,VALID,0.336719,
2009-08-06, 00:36:05,VALID,1009.22,VALID,0,VALID,96.6717,VALID,0,VALID,24.3761,VALID,177,VALID,0.0691406,
2009-08-06, 00:37:05,VALID,1009.22,VALID,0,VALID,96.6564,VALID,0.105969,VALID,24.3937,VALID,177,VALID,0.235938,
2009-08-06, 00:38:05,VALID,1009.22,VALID,0,VALID,96.6717,VALID,0.105969,VALID,24.4327,VALID,179,VALID,0.626172,
2009-08-06, 00:39:05,VALID,1009.23,VALID,0,VALID,96.6793,VALID,0.105969,VALID,24.493,VALID,178,VALID,0.321875,
2009-08-06, 00:40:05,VALID,1009.2,VALID,0,VALID,96.6564,VALID,0.105969,VALID,24.5106,VALID,209,VALID,0.381641,
2009-08-06, 00:41:05,VALID,1009.19,VALID,0,VALID,96.6564,VALID,0.105969,VALID,24.5691,VALID,182,VALID,0.389844,
2009-08-06, 00:42:05,VALID,1009.23,VALID,0,VALID,96.6717,VALID,0.105969,VALID,24.6081,VALID,182,VALID,0.422656,
2009-08-06, 00:43:05,VALID,1009.23,VALID,0,VALID,96.6107,VALID,0.105969,VALID,24.6471,VALID,196,VALID,0.656641,
2009-08-06, 00:44:05,VALID,1009.25,VALID,0,VALID,96.5954,VALID,0.105969,VALID,24.725,VALID,188,VALID,0.616797,
2009-08-06, 00:45:05,VALID,1009.27,VALID,0,VALID,96.5192,VALID,0.105969,VALID,24.7445,VALID,181,VALID,0.784375,
2009-08-06, 00:46:05,VALID,1009.28,VALID,0,VALID,96.3285,VALID,0.105969,VALID,24.8049,VALID,171,VALID,0.751172,
2009-08-06, 00:47:05,VALID,1009.3,VALID,0,VALID,96.2065,VALID,0.105969,VALID,24.8225,VALID,198,VALID,1.13555,
2009-08-06, 00:48:05,VALID,1009.27,VALID,0,VALID,96.1226,VALID,0.105969,VALID,24.8809,VALID,194,VALID,0.754687,
2009-08-06, 00:49:05,VALID,1009.27,VALID,0,VALID,96.0082,VALID,0.105969,VALID,24.9394,VALID,173,VALID,0.380078,
2009-08-06, 00:50:05,VALID,1009.26,VALID,0,VALID,95.9015,VALID,0.105969,VALID,24.9589,VALID,219,VALID,0.549609,
2009-08-06, 00:51:05,VALID,1009.26,VALID,0,VALID,95.7947,VALID,0.105969,VALID,24.9979,VALID,200,VALID,0.601172,
2009-08-06, 00:52:05,VALID,1009.25,VALID,0,VALID,95.7032,VALID,0.105969,VALID,25.0583,VALID,220,VALID,0.822656,
2009-08-06, 00:53:05,VALID,1009.2,VALID,0,VALID,95.5278,VALID,0.105969,VALID,25.0954,VALID,199,VALID,0.469922,
2009-08-06, 00:54:05,VALID,1009.2,VALID,0,VALID,95.3905,VALID,0.105969,VALID,25.1148,VALID,211,VALID,0.480078,
2009-08-06, 00:55:05,VALID,1009.18,VALID,0,VALID,95.2685,VALID,0.105969,VALID,25.1557,VALID,227,VALID,0.0117188,
2009-08-06, 00:56:05,VALID,1009.14,VALID,0,VALID,95.1389,VALID,0.105969,VALID,25.1343,VALID,216,VALID,0.567578,
2009-08-06, 00:57:05,VALID,1009.14,VALID,0,VALID,95.0779,VALID,0.105969,VALID,25.1947,VALID,200,VALID,0.619922,
2009-08-06, 00:58:05,VALID,1009.12,VALID,0,VALID,95.0398,VALID,0.105969,VALID,25.2123,VALID,225,VALID,0.605469,
2009-08-06, 00:59:05,VALID,1009.08,VALID,0,VALID,94.8568,VALID,0.105969,VALID,25.2337,VALID,224,VALID,0.295703,
2009-08-06, 01:00:05,VALID,1009.08,VALID,0,VALID,94.7347,VALID,0.105969,VALID,25.2318,VALID,206,VALID,0.685938,
2009-08-06, 01:01:05,VALID,1009.07,VALID,0,VALID,94.6814,VALID,0.105969,VALID,25.2708,VALID,199,VALID,0.263281,
2009-08-06, 01:02:05,VALID,1009.07,VALID,0,VALID,94.6356,VALID,0.105969,VALID,25.3117,VALID,200,VALID,0.921484,
2009-08-06, 01:03:05,VALID,1009.08,VALID,0,VALID,94.5288,VALID,0.105969,VALID,25.3098,VALID,182,VALID,0.854688,
2009-08-06, 01:04:05,VALID,1009.11,VALID,0,VALID,94.3534,VALID,0.105969,VALID,25.3293,VALID,185,VALID,0.298828,
2009-08-06, 01:05:05,VALID,1009.14,VALID,0,VALID,94.2619,VALID,0,VALID,25.3293,VALID,213,VALID,0.502734,
2009-08-06, 01:06:05,VALID,1009.16,VALID,0,VALID,94.3153,VALID,0.105969,VALID,25.3683,VALID,204,VALID,1.57461,
2009-08-06, 01:07:05,VALID,1009.22,VALID,0,VALID,94.2543,VALID,0.105969,VALID,25.4287,VALID,192,VALID,0.6875,
2009-08-06, 01:08:05,VALID,1009.23,VALID,0,VALID,94.1781,VALID,0.105969,VALID,25.4482,VALID,171,VALID,0.887891,
2009-08-06, 01:09:05,VALID,1009.26,VALID,0,VALID,94.0484,VALID,0.105969,VALID,25.4267,VALID,202,VALID,0.933594,
2009-08-06, 01:10:05,VALID,1009.23,VALID,0,VALID,94.056,VALID,0.105969,VALID,25.4677,VALID,214,VALID,0.964453,
2009-08-06, 01:11:05,VALID,1009.21,VALID,0,VALID,94.0332,VALID,0.105969,VALID,25.4657,VALID,215,VALID,0.801562,
2009-08-06, 01:12:05,VALID,1009.22,VALID,0,VALID,93.9645,VALID,0.105969,VALID,25.4871,VALID,192,VALID,0.757422,
2009-08-06, 01:13:05,VALID,1009.19,VALID,0,VALID,93.8807,VALID,0.105969,VALID,25.4677,VALID,195,VALID,0.991406,
2009-08-06, 01:14:05,VALID,1009.19,VALID,0,VALID,93.8883,VALID,0.105969,VALID,25.4657,VALID,191,VALID,0.89375,
2009-08-06, 01:15:05,VALID,1009.18,VALID,0,VALID,93.8425,VALID,0,VALID,25.4657,VALID,164,VALID,0.746484,
2009-08-06, 01:16:05,VALID,1009.19,VALID,0,VALID,93.8425,VALID,0.105969,VALID,25.4462,VALID,191,VALID,0.712891,
2009-08-06, 01:17:05,VALID,1009.21,VALID,0,VALID,93.873,VALID,0.105969,VALID,25.4462,VALID,161,VALID,0.812109,
2009-08-06, 01:18:05,VALID,1009.2,VALID,0,VALID,93.7968,VALID,0.105969,VALID,25.4462,VALID,191,VALID,1.05234,
2009-08-06, 01:19:05,VALID,1009.16,VALID,0,VALID,93.7739,VALID,0.105969,VALID,25.4072,VALID,169,VALID,0.888672,
2009-08-06, 01:20:05,VALID,1009.19,VALID,0,VALID,93.8807,VALID,0,VALID,25.4287,VALID,164,VALID,1.00469,
2009-08-06, 01:21:05,VALID,1009.16,VALID,0,VALID,93.9493,VALID,0.105969,VALID,25.4092,VALID,166,VALID,1.01523,
2009-08-06, 01:22:05,VALID,1009.16,VALID,0,VALID,94.1018,VALID,0,VALID,25.3897,VALID,179,VALID,0.619531,
2009-08-06, 01:23:05,VALID,1009.14,VALID,0,VALID,94.1781,VALID,0.105969,VALID,25.3683,VALID,205,VALID,1.3125,
2009-08-06, 01:24:05,VALID,1009.14,VALID,0,VALID,94.2772,VALID,0.105969,VALID,25.3897,VALID,219,VALID,0.928516,
2009-08-06, 01:25:05,VALID,1009.15,VALID,0,VALID,94.3229,VALID,0,VALID,25.4092,VALID,213,VALID,1.02617,
2009-08-06, 01:26:05,VALID,1009.13,VALID,0,VALID,94.2467,VALID,0,VALID,25.4267,VALID,187,VALID,0.583984,
2009-08-06, 01:27:05,VALID,1009.11,VALID,0,VALID,94.1399,VALID,0,VALID,25.4287,VALID,184,VALID,1.1293,
2009-08-06, 01:28:05,VALID,1009.1,VALID,0,VALID,94.1933,VALID,0.105969,VALID,25.4287,VALID,174,VALID,0.947656,
2009-08-06, 01:29:05,VALID,1009.13,VALID,0,VALID,94.2086,VALID,0,VALID,25.4092,VALID,195,VALID,0.489844,
2009-08-06, 01:30:05,VALID,1009.09,VALID,0,VALID,94.1857,VALID,0.105969,VALID,25.4092,VALID,180,VALID,0.650391,
2009-08-06, 01:31:05,VALID,1009.08,VALID,0,VALID,94.2314,VALID,0,VALID,25.4092,VALID,180,VALID,0.871094,
2009-08-06, 01:32:05,VALID,1009.07,VALID,0,VALID,94.2772,VALID,0,VALID,25.3897,VALID,188,VALID,0.498828,
2009-08-06, 01:33:05,VALID,1009.05,VALID,0,VALID,94.3611,VALID,0,VALID,25.4092,VALID,195,VALID,0.875781,
2009-08-06, 01:34:05,VALID,1009.08,VALID,0,VALID,94.3687,VALID,0,VALID,25.4092,VALID,175,VALID,0.5625,
2009-08-06, 01:35:05,VALID,1009.07,VALID,0,VALID,94.3687,VALID,0.105969,VALID,25.4092,VALID,163,VALID,0.195313,
2009-08-06, 01:36:05,VALID,1009.05,VALID,0,VALID,94.3839,VALID,0.105969,VALID,25.3877,VALID,191,VALID,0.738672,
2009-08-06, 01:37:05,VALID,1009.03,VALID,0,VALID,94.3992,VALID,0.105969,VALID,25.3877,VALID,184,VALID,0.61875,
2009-08-06, 01:38:05,VALID,1009.01,VALID,0,VALID,94.4297,VALID,0.105969,VALID,25.3877,VALID,187,VALID,0.878516,
2009-08-06, 01:39:05,VALID,1008.99,VALID,0,VALID,94.4068,VALID,0.105969,VALID,25.3897,VALID,185,VALID,0.639453,
2009-08-06, 01:40:05,VALID,1008.96,VALID,0,VALID,94.445,VALID,0,VALID,25.4092,VALID,184,VALID,0.517578,
2009-08-06, 01:41:05,VALID,1008.95,VALID,0,VALID,94.4373,VALID,0,VALID,25.3897,VALID,184,VALID,0.399609,
2009-08-06, 01:42:05,VALID,1008.93,VALID,0,VALID,94.4526,VALID,0,VALID,25.3702,VALID,161,VALID,0.540234,
2009-08-06, 01:43:05,VALID,1008.93,VALID,0,VALID,94.445,VALID,0,VALID,25.3488,VALID,161,VALID,0.108594,
2009-08-06, 01:44:05,VALID,1008.93,VALID,0,VALID,94.4602,VALID,0.105969,VALID,25.3488,VALID,161,VALID,0.00429688,
2009-08-06, 01:45:05,VALID,1008.94,VALID,0,VALID,94.5136,VALID,0.105969,VALID,25.3702,VALID,170,VALID,0.40625,
2009-08-06, 01:46:05,VALID,1008.95,VALID,0,VALID,94.5517,VALID,0,VALID,25.3683,VALID,176,VALID,0.326172,
2009-08-06, 01:47:05,VALID,1008.95,VALID,0,VALID,94.5593,VALID,0,VALID,25.3683,VALID,193,VALID,0.271484,
2009-08-06, 01:48:05,VALID,1008.98,VALID,0,VALID,94.5212,VALID,0,VALID,25.3897,VALID,162,VALID,0.704297,
2009-08-06, 01:49:05,VALID,1008.97,VALID,0,VALID,94.4755,VALID,0,VALID,25.3897,VALID,164,VALID,0.586328,
2009-08-06, 01:50:05,VALID,1008.96,VALID,0,VALID,94.4297,VALID,0.105969,VALID,25.3683,VALID,164,VALID,0.231641,
2009-08-06, 01:51:05,VALID,1008.99,VALID,0,VALID,94.3458,VALID,0.105969,VALID,25.3683,VALID,164,VALID,0.363281,
2009-08-06, 01:52:05,VALID,1008.97,VALID,0,VALID,94.3306,VALID,0,VALID,25.3488,VALID,164,VALID,0.183984,
2009-08-06, 01:53:05,VALID,1008.94,VALID,0,VALID,94.3153,VALID,0,VALID,25.3702,VALID,164,VALID,0.0710938,
2009-08-06, 01:54:05,VALID,1008.92,VALID,0,VALID,94.3687,VALID,0,VALID,25.3507,VALID,164,VALID,0.00234375,
2009-08-06, 01:55:05,VALID,1008.9,VALID,0,VALID,94.4145,VALID,0.105969,VALID,25.3507,VALID,164,VALID,0.0382813,
2009-08-06, 01:56:05,VALID,1008.89,VALID,0,VALID,94.4678,VALID,0.105969,VALID,25.3507,VALID,164,VALID,0.127734,
2009-08-06, 01:57:05,VALID,1008.88,VALID,0,VALID,94.506,VALID,0,VALID,25.3312,VALID,164,VALID,0,
2009-08-06, 01:58:05,VALID,1008.86,VALID,0,VALID,94.5593,VALID,0,VALID,25.3098,VALID,164,VALID,0,
2009-08-06, 01:59:05,VALID,1008.85,VALID,0,VALID,94.5975,VALID,0.105969,VALID,25.3098,VALID,164,VALID,0,
2009-08-06, 02:00:05,VALID,1008.84,VALID,0,VALID,94.6203,VALID,0,VALID,25.3312,VALID,164,VALID,0,
2009-08-06, 02:01:05,VALID,1008.84,VALID,0,VALID,94.6127,VALID,0,VALID,25.2708,VALID,164,VALID,0,
2009-08-06, 02:02:05,VALID,1008.84,VALID,0,VALID,94.6508,VALID,0,VALID,25.2922,VALID,164,VALID,0,
2009-08-06, 02:03:05,VALID,1008.8,VALID,0,VALID,94.7271,VALID,0,VALID,25.2708,VALID,164,VALID,0,
2009-08-06, 02:04:05,VALID,1008.81,VALID,0,VALID,94.7576,VALID,0,VALID,25.2922,VALID,164,VALID,0,
2009-08-06, 02:05:05,VALID,1008.82,VALID,0,VALID,94.6814,VALID,0.105969,VALID,25.2532,VALID,164,VALID,0,
2009-08-06, 02:06:05,VALID,1008.86,VALID,0,VALID,94.6508,VALID,0,VALID,25.2337,VALID,164,VALID,0,
2009-08-06, 02:07:05,VALID,1008.86,VALID,0,VALID,94.689,VALID,0,VALID,25.2123,VALID,164,VALID,0,
2009-08-06, 02:08:05,VALID,1008.9,VALID,0,VALID,94.7576,VALID,0,VALID,25.1928,VALID,164,VALID,0,
2009-08-06, 02:09:05,VALID,1008.9,VALID,0,VALID,94.811,VALID,0.105969,VALID,25.1947,VALID,164,VALID,0,
2009-08-06, 02:10:05,VALID,1008.92,VALID,0,VALID,94.9483,VALID,0,VALID,25.1947,VALID,164,VALID,0,
2009-08-06, 02:11:05,VALID,1008.9,VALID,0,VALID,95.0474,VALID,0.105969,VALID,25.1733,VALID,164,VALID,0,
2009-08-06, 02:12:05,VALID,1008.9,VALID,0,VALID,95.0703,VALID,0,VALID,25.1752,VALID,164,VALID,0,
2009-08-06, 02:13:05,VALID,1008.86,VALID,0,VALID,95.1084,VALID,0,VALID,25.1752,VALID,164,VALID,0,
2009-08-06, 02:14:05,VALID,1008.86,VALID,0,VALID,95.1923,VALID,0,VALID,25.1148,VALID,164,VALID,0,
2009-08-06, 02:15:05,VALID,1008.87,VALID,0,VALID,95.2533,VALID,0,VALID,25.1167,VALID,164,VALID,0,
2009-08-06, 02:16:05,VALID,1008.87,VALID,0,VALID,95.2838,VALID,0,VALID,25.0778,VALID,164,VALID,0,
2009-08-06, 02:17:05,VALID,1008.83,VALID,0,VALID,95.3295,VALID,0,VALID,25.0388,VALID,164,VALID,0,
2009-08-06, 02:18:05,VALID,1008.86,VALID,0,VALID,95.3677,VALID,0,VALID,24.9784,VALID,164,VALID,0,
2009-08-06, 02:19:05,VALID,1008.83,VALID,0,VALID,95.3982,VALID,0,VALID,24.9394,VALID,160,VALID,0,
2009-08-06, 02:20:05,VALID,1008.81,VALID,0,VALID,95.3753,VALID,0.105969,VALID,24.8809,VALID,157,VALID,0,
2009-08-06, 02:21:05,VALID,1008.81,VALID,0,VALID,95.3524,VALID,0.105969,VALID,24.8225,VALID,117,VALID,0.158594,
2009-08-06, 02:22:05,VALID,1008.77,VALID,0,VALID,95.4058,VALID,0.105969,VALID,24.8049,VALID,117,VALID,0.0746094,
2009-08-06, 02:23:05,VALID,1008.73,VALID,0,VALID,95.4668,VALID,0,VALID,24.725,VALID,117,VALID,0.000390625,
2009-08-06, 02:24:05,VALID,1008.71,VALID,0,VALID,95.4516,VALID,0,VALID,24.686,VALID,117,VALID,0.436328,
2009-08-06, 02:25:05,VALID,1008.68,VALID,0,VALID,95.5583,VALID,0,VALID,24.6684,VALID,117,VALID,0.480078,
2009-08-06, 02:26:05,VALID,1008.68,VALID,0,VALID,95.7032,VALID,0,VALID,24.6294,VALID,117,VALID,0.416016,
2009-08-06, 02:27:05,VALID,1008.71,VALID,0,VALID,95.8176,VALID,0,VALID,24.5886,VALID,117,VALID,0.314063,
2009-08-06, 02:28:05,VALID,1008.72,VALID,0,VALID,95.9091,VALID,0,VALID,24.571,VALID,117,VALID,0.265234,
2009-08-06, 02:29:05,VALID,1008.74,VALID,0,VALID,95.9777,VALID,0,VALID,24.5301,VALID,117,VALID,0.197656,
2009-08-06, 02:30:05,VALID,1008.77,VALID,0,VALID,96.0616,VALID,0,VALID,24.532,VALID,117,VALID,0.160938,
2009-08-06, 02:31:05,VALID,1008.74,VALID,0,VALID,96.1302,VALID,0,VALID,24.5515,VALID,117,VALID,0.223438,
2009-08-06, 02:32:05,VALID,1008.75,VALID,0,VALID,96.2294,VALID,0.105969,VALID,24.532,VALID,117,VALID,0.325,
2009-08-06, 02:33:05,VALID,1008.78,VALID,0,VALID,96.3133,VALID,0,VALID,24.5125,VALID,109,VALID,0.375,
2009-08-06, 02:34:05,VALID,1008.78,VALID,0,VALID,96.3743,VALID,0,VALID,24.5125,VALID,109,VALID,0.248047,
2009-08-06, 02:35:05,VALID,1008.8,VALID,0,VALID,96.359,VALID,0,VALID,24.493,VALID,109,VALID,0.0503906,
2009-08-06, 02:36:05,VALID,1008.81,VALID,0,VALID,96.3819,VALID,0,VALID,24.454,VALID,109,VALID,0,
2009-08-06, 02:37:05,VALID,1008.79,VALID,0,VALID,96.3971,VALID,0,VALID,24.454,VALID,109,VALID,0.210547,
2009-08-06, 02:38:05,VALID,1008.78,VALID,0,VALID,96.3971,VALID,0.105969,VALID,24.4345,VALID,109,VALID,0.188281,
2009-08-06, 02:39:05,VALID,1008.74,VALID,0,VALID,96.3895,VALID,0,VALID,24.3956,VALID,109,VALID,0.236328,
2009-08-06, 02:40:05,VALID,1008.74,VALID,0,VALID,96.3666,VALID,0,VALID,24.3761,VALID,109,VALID,0.367188,
2009-08-06, 02:41:05,VALID,1008.75,VALID,0,VALID,96.3514,VALID,0.105969,VALID,24.3371,VALID,109,VALID,0.258203,
2009-08-06, 02:42:05,VALID,1008.77,VALID,0,VALID,96.3056,VALID,0,VALID,24.2981,VALID,106,VALID,0.460938,
2009-08-06, 02:43:05,VALID,1008.75,VALID,0,VALID,96.237,VALID,0,VALID,24.1988,VALID,105,VALID,0.429297,
2009-08-06, 02:44:05,VALID,1008.8,VALID,0,VALID,96.2218,VALID,0,VALID,24.2007,VALID,105,VALID,0.302344,
2009-08-06, 02:45:05,VALID,1008.82,VALID,0,VALID,96.2294,VALID,0.105969,VALID,24.1599,VALID,105,VALID,0.00351562,
2009-08-06, 02:46:04,VALID,1008.82,VALID,0,VALID,96.2218,VALID,0.105969,VALID,24.1014,VALID,105,VALID,0.176563,
2009-08-06, 02:47:04,VALID,1008.82,VALID,0,VALID,96.2446,VALID,0.105969,VALID,24.1032,VALID,105,VALID,0,
2009-08-06, 02:48:04,VALID,1008.86,VALID,0,VALID,96.2523,VALID,0.105969,VALID,24.0624,VALID,105,VALID,0,
2009-08-06, 02:49:04,VALID,1008.86,VALID,0,VALID,96.2904,VALID,0,VALID,24.0643,VALID,105,VALID,0,
2009-08-06, 02:50:04,VALID,1008.87,VALID,0,VALID,96.3209,VALID,0,VALID,24.0448,VALID,105,VALID,0,
2009-08-06, 02:51:04,VALID,1008.88,VALID,0,VALID,96.3743,VALID,0,VALID,24.0448,VALID,105,VALID,0,
2009-08-06, 02:52:04,VALID,1008.89,VALID,0,VALID,96.4429,VALID,0,VALID,24.0448,VALID,105,VALID,0,
2009-08-06, 02:53:04,VALID,1008.88,VALID,0,VALID,96.5039,VALID,0,VALID,24.0253,VALID,105,VALID,0,
2009-08-06, 02:54:04,VALID,1008.87,VALID,0,VALID,96.5573,VALID,0,VALID,23.965,VALID,105,VALID,0,
2009-08-06, 02:55:04,VALID,1008.85,VALID,0,VALID,96.542,VALID,0.105969,VALID,23.9863,VALID,105,VALID,0,
2009-08-06, 02:56:04,VALID,1008.84,VALID,0,VALID,96.5878,VALID,0,VALID,23.9473,VALID,105,VALID,0,
2009-08-06, 02:57:04,VALID,1008.82,VALID,0,VALID,96.6335,VALID,0,VALID,23.9473,VALID,105,VALID,0,
2009-08-06, 02:58:04,VALID,1008.83,VALID,0,VALID,96.6564,VALID,0,VALID,23.9278,VALID,95,VALID,0,
2009-08-06, 02:59:04,VALID,1008.81,VALID,0,VALID,96.664,VALID,0,VALID,23.9084,VALID,30,VALID,0.0109375,
2009-08-06, 03:00:04,VALID,1008.8,VALID,0,VALID,96.6793,VALID,0,VALID,23.8694,VALID,30,VALID,0.409375,
2009-08-06, 03:01:04,VALID,1008.79,VALID,0,VALID,96.7022,VALID,0,VALID,23.8694,VALID,30,VALID,0,
2009-08-06, 03:02:04,VALID,1008.74,VALID,0,VALID,96.7327,VALID,0,VALID,23.8304,VALID,30,VALID,0,
2009-08-06, 03:03:04,VALID,1008.72,VALID,0,VALID,96.7403,VALID,0,VALID,23.7914,VALID,30,VALID,0.262891,
2009-08-06, 03:04:04,VALID,1008.71,VALID,0,VALID,96.7174,VALID,0,VALID,23.7525,VALID,30,VALID,0.449609,
2009-08-06, 03:05:04,VALID,1008.7,VALID,0,VALID,96.7327,VALID,0,VALID,23.733,VALID,30,VALID,0.342969,
2009-08-06, 03:06:04,VALID,1008.69,VALID,0,VALID,96.7403,VALID,0,VALID,23.7135,VALID,30,VALID,0.199219,
2009-08-06, 03:07:04,VALID,1008.67,VALID,0,VALID,96.7632,VALID,0,VALID,23.694,VALID,30,VALID,0,
2009-08-06, 03:08:04,VALID,1008.66,VALID,0,VALID,96.7937,VALID,0,VALID,23.6745,VALID,30,VALID,0,
2009-08-06, 03:09:04,VALID,1008.6,VALID,0,VALID,96.8242,VALID,0,VALID,23.655,VALID,30,VALID,0.332812,
2009-08-06, 03:10:04,VALID,1008.63,VALID,0,VALID,96.8242,VALID,0,VALID,23.6161,VALID,30,VALID,0.369141,
2009-08-06, 03:11:04,VALID,1008.65,VALID,0,VALID,96.8471,VALID,0,VALID,23.5771,VALID,30,VALID,0.28125,
2009-08-06, 03:12:04,VALID,1008.63,VALID,0,VALID,96.8318,VALID,0,VALID,23.5576,VALID,30,VALID,0.165625,
2009-08-06, 03:13:04,VALID,1008.67,VALID,0,VALID,96.8547,VALID,0,VALID,23.5381,VALID,30,VALID,0.0753906,
2009-08-06, 03:14:04,VALID,1008.68,VALID,0,VALID,96.8852,VALID,0,VALID,23.4992,VALID,30,VALID,0,
2009-08-06, 03:15:04,VALID,1008.69,VALID,0,VALID,96.8852,VALID,0,VALID,23.4797,VALID,30,VALID,0.126953,
2009-08-06, 03:16:04,VALID,1008.68,VALID,0,VALID,96.931,VALID,0,VALID,23.4797,VALID,30,VALID,0.146094,
2009-08-06, 03:17:04,VALID,1008.64,VALID,0,VALID,96.9615,VALID,0,VALID,23.4797,VALID,30,VALID,0.241016,
2009-08-06, 03:18:04,VALID,1008.61,VALID,0,VALID,97.0072,VALID,0,VALID,23.4407,VALID,30,VALID,0.185156,
2009-08-06, 03:19:04,VALID,1008.62,VALID,0,VALID,97.0148,VALID,0,VALID,23.4407,VALID,30,VALID,0,
2009-08-06, 03:20:04,VALID,1008.63,VALID,0,VALID,97.0225,VALID,0,VALID,23.4407,VALID,30,VALID,0,
2009-08-06, 03:21:04,VALID,1008.68,VALID,0,VALID,97.0682,VALID,0,VALID,23.4212,VALID,30,VALID,0,
2009-08-06, 03:22:04,VALID,1008.68,VALID,0,VALID,97.0835,VALID,0,VALID,23.3823,VALID,30,VALID,0,
2009-08-06, 03:23:04,VALID,1008.66,VALID,0,VALID,97.1063,VALID,0,VALID,23.4017,VALID,30,VALID,0,
2009-08-06, 03:24:04,VALID,1008.66,VALID,0,VALID,97.1292,VALID,0,VALID,23.3823,VALID,30,VALID,0,
2009-08-06, 03:25:04,VALID,1008.61,VALID,0,VALID,97.1368,VALID,0,VALID,23.361,VALID,30,VALID,0.119922,
2009-08-06, 03:26:04,VALID,1008.61,VALID,0,VALID,97.1674,VALID,0,VALID,23.3628,VALID,30,VALID,0.0628906,
2009-08-06, 03:27:04,VALID,1008.6,VALID,0,VALID,97.175,VALID,0,VALID,23.3433,VALID,30,VALID,0.234766,
2009-08-06, 03:28:04,VALID,1008.6,VALID,0,VALID,97.1902,VALID,0,VALID,23.3433,VALID,30,VALID,0.431641,
2009-08-06, 03:29:04,VALID,1008.57,VALID,0,VALID,97.2055,VALID,0,VALID,23.3238,VALID,30,VALID,0.168359,
2009-08-06, 03:30:04,VALID,1008.6,VALID,0,VALID,97.1902,VALID,0,VALID,23.2831,VALID,30,VALID,0.467969,
2009-08-06, 03:31:04,VALID,1008.59,VALID,0,VALID,97.2055,VALID,0,VALID,23.2848,VALID,30,VALID,0.345313,
2009-08-06, 03:32:04,VALID,1008.61,VALID,0,VALID,97.236,VALID,0,VALID,23.2654,VALID,30,VALID,0.396875,
2009-08-06, 03:33:04,VALID,1008.62,VALID,0,VALID,97.236,VALID,0.105969,VALID,23.2459,VALID,15,VALID,0.633984,
2009-08-06, 03:34:04,VALID,1008.61,VALID,0,VALID,97.2589,VALID,0,VALID,23.2459,VALID,14,VALID,0.669922,
2009-08-06, 03:35:04,VALID,1008.65,VALID,0,VALID,97.2589,VALID,0,VALID,23.1857,VALID,14,VALID,0.677734,
2009-08-06, 03:36:04,VALID,1008.65,VALID,0,VALID,97.2741,VALID,0,VALID,23.2069,VALID,5,VALID,0.599219,
2009-08-06, 03:37:04,VALID,1008.66,VALID,0,VALID,97.2894,VALID,0.105969,VALID,23.1857,VALID,7,VALID,0.609375,
2009-08-06, 03:38:04,VALID,1008.64,VALID,0,VALID,97.3427,VALID,0.105969,VALID,23.2069,VALID,357,VALID,0.477344,
2009-08-06, 03:39:04,VALID,1008.68,VALID,0,VALID,97.3351,VALID,0.105969,VALID,23.1874,VALID,360,VALID,0.532031,
2009-08-06, 03:40:04,VALID,1008.67,VALID,0,VALID,97.3427,VALID,0,VALID,23.1467,VALID,1,VALID,0.269141,
2009-08-06, 03:41:04,VALID,1008.64,VALID,0,VALID,97.358,VALID,0,VALID,23.1485,VALID,1,VALID,0.252734,
2009-08-06, 03:42:04,VALID,1008.64,VALID,0,VALID,97.3732,VALID,0,VALID,23.1272,VALID,1,VALID,0.489453,
2009-08-06, 03:43:04,VALID,1008.65,VALID,0,VALID,97.3961,VALID,0,VALID,23.129,VALID,1,VALID,0.445313,